Terug naar catalogus

STARLINK-30794

ActiefCommunicatieVLEO
NORAD 58218·PAYLOAD·🇺🇸 United States

Gelanceerd Nov 3, 2023 vanaf Cape Canaveral Space Force Station

Loading…

Volgende Passages (komende 24 uur)

TLE

VersSource: CelesTrak SupGP

Epoch: Sep 15, 2026, 02:33 UTC

1 58218C 23170N   26258.10673611  .00003222  00000+0  11670-3 0  2589
2 58218  43.0014 204.2261 0001384 262.9709  16.6027 15.27577109    13

Volg STARLINK-30794 in realtime met AllMySat

Download on the App Store